Address 0x976ba263c8c2a89d8473e26b654460fe7a9d3ab7 1

 
 
Txn Hash Method
Block
From
To
Value [Txn Fee]
0xbeb3f6b4d988de0b2df694a1fe0614cf11bdeb8bc29fabc5fa44b2bb877934f2Transfer128195802021-11-21 0:19:177 days 23 hrs ago0x976ba263c8c2a89d8473e26b654460fe7a9d3ab7OUT0x89ac3aa902226dc94f253b767d987e29282bdc2e0.000755492018947 BNB0.000105
0xf9ac646581ec03e830d33e5e9845baa0103f92906373b6a7260f1d22bf921149Transfer128195632021-11-21 0:18:267 days 23 hrs ago0x976ba263c8c2a89d8473e26b654460fe7a9d3ab7OUT SafeMars: SAFEMARS Token0 BNB0.00108
0x614df6c437ae0a097c694c1416496c31c5a2da734492ad17ef26e3fe9ab9753dTransfer128195532021-11-21 0:17:567 days 23 hrs ago0x976ba263c8c2a89d8473e26b654460fe7a9d3ab7OUT 0xa1fd12820f0c1c492dd87f8a0d12043d8f24f8a60 BNB0.00018042
0xf9f412dc55a244e1d3494108e82420db9e8eaa36a21ce30aea126e6d0cbc3f09Transfer128195442021-11-21 0:17:297 days 23 hrs ago0x976ba263c8c2a89d8473e26b654460fe7a9d3ab7OUT 0x0b771e34526886d9fff8e764cf557d1cb5943c890 BNB0.000180625
0x1ad6d8de77e12bbee04a0286c8c373dfce048a3ea088e89cdb3f087ef093bcf3Transfer128195402021-11-21 0:17:177 days 23 hrs ago0x976ba263c8c2a89d8473e26b654460fe7a9d3ab7OUT Go To Moon: GTM Token0 BNB0.00050845
0x656edb3d3285914876a944fd51b9a4bd47195c3eccc76794c4c6135ab59dc0d4Transfer128195362021-11-21 0:17:057 days 23 hrs ago0x976ba263c8c2a89d8473e26b654460fe7a9d3ab7OUT 0x00e7daf0e5fd1f5331c92d09e3c825a8e4fc65150 BNB0.00017956
0x348c0e8244c802423a7e4e8f84d0248e2d3c33d53a099ad47c47a37e6cfd8a72Transfer128195312021-11-21 0:16:507 days 23 hrs ago0x976ba263c8c2a89d8473e26b654460fe7a9d3ab7OUT 0x2d2bb6cc040010583f16bb1c5afee129ed13b5320 BNB0.000180685
0x1fa6c52cce78397d6dde91c2faeba8f7f26a3f2e91a4b05bea1dcadc135c1a51Transfer128195272021-11-21 0:16:387 days 23 hrs ago0x976ba263c8c2a89d8473e26b654460fe7a9d3ab7OUT Fair Safe: FSAFE Token0 BNB0.00050845
0xd4c2725e36ae8989361f36b8783f375f767a4fb7182ea787d036acc0d020eec2Transfer128195202021-11-21 0:16:177 days 23 hrs ago0x976ba263c8c2a89d8473e26b654460fe7a9d3ab7OUT 0x9a99ea92ed1e0c963078ac5c0867df85ec6d06b70 BNB0.000180805
0xf49b8d78ac7a460ef5a01011e239361448d9f76f4fdf07c8ed8626dbd554dfd0Transfer128195162021-11-21 0:16:057 days 23 hrs ago0x976ba263c8c2a89d8473e26b654460fe7a9d3ab7OUT 0xa38f6b2848cae0b61ddd3ec36560801e7eda2b620 BNB0.0001806
0xbdd08d6ac4e12c21d564598fd37224b47b45930481fbdbee887873014c52470bTransfer128195102021-11-21 0:15:477 days 23 hrs ago0x976ba263c8c2a89d8473e26b654460fe7a9d3ab7OUT SafeMoonCash: SAFEMOONCASH Token0 BNB0.00051608
0x96e6b86e48a2a9cf984e5f1671fd4a4dbb8530b90439f7b22250065d3fb30c5dTransfer128194982021-11-21 0:15:117 days 23 hrs ago0x976ba263c8c2a89d8473e26b654460fe7a9d3ab7OUT NFTArt Finance: NFTART Token0 BNB0.00035959
0x7629c738ad6799a90c091f9560b3739db360b4c1bf4e65f971953286bb7f892aTransfer128194932021-11-21 0:14:567 days 23 hrs ago0x976ba263c8c2a89d8473e26b654460fe7a9d3ab7OUT WolfSafePoorPeople: WSPP Token0 BNB0.00018018
0x7266f287cca3e74412b83cd0686bc0d141fab9652e5ebcadc225c82dbef55a37Transfer128194782021-11-21 0:14:117 days 23 hrs ago0x976ba263c8c2a89d8473e26b654460fe7a9d3ab7OUT Binance: BUSD Stablecoin0 BNB0.000180515
0x2382f9196aae7db08d02c8e7688e740c53c31ff7e010fc8b6f29da3fb0aa7721Transfer128194592021-11-21 0:13:147 days 23 hrs ago0x89ac3aa902226dc94f253b767d987e29282bdc2e IN 0x976ba263c8c2a89d8473e26b654460fe7a9d3ab70.005092790130222 BNB0.000105
0x5270206e92730959a1b8da2d430e459db849dbd8e5c02517c12568ef02a3dc69Approve91559942021-07-14 18:04:39137 days 5 hrs ago0x976ba263c8c2a89d8473e26b654460fe7a9d3ab7OUT Binance: BUSD Stablecoin0 BNB0.00022203
0xae49db9d27c5f8888be564efc5fd23a1e1141b937663d1315a9da8de6cfa7487Get Airdrop82441582021-06-12 21:57:48169 days 1 hr ago0x976ba263c8c2a89d8473e26b654460fe7a9d3ab7OUT 0x2d2bb6cc040010583f16bb1c5afee129ed13b5320 BNB0.000287515
0x44916043b7b989dcc6049f628001c183aee3a25cc5cb061c9d054b88fe76e649Get Airdrop82440502021-06-12 21:52:02169 days 1 hr ago0x976ba263c8c2a89d8473e26b654460fe7a9d3ab7OUT 0x2d2bb6cc040010583f16bb1c5afee129ed13b5320 BNB0.000287515
0xa0baf75925bc58aa5fcea59f7f7626b5dc041a1480e08522ac2fea38a706b61fGet Airdrop82440482021-06-12 21:51:56169 days 1 hr ago0x976ba263c8c2a89d8473e26b654460fe7a9d3ab7OUT 0x2d2bb6cc040010583f16bb1c5afee129ed13b5320 BNB0.000287515
0x46d9e65764ef99266a35e8175256fb7b8d878886995f3613f220ca2239168d11Get Airdrop82440472021-06-12 21:51:52169 days 1 hr ago0x976ba263c8c2a89d8473e26b654460fe7a9d3ab7OUT 0x2d2bb6cc040010583f16bb1c5afee129ed13b5320 BNB0.000287515
0x9ee4caeb0a3db63be175e7afe620c49fe61d5406f9ec833a4b6722bb291bc6e0Get Airdrop82440452021-06-12 21:51:45169 days 1 hr ago0x976ba263c8c2a89d8473e26b654460fe7a9d3ab7OUT 0x2d2bb6cc040010583f16bb1c5afee129ed13b5320 BNB0.000287515
0x495505f35bd7bc91a5014acb413cf6367385c85d2b4d226b97f8c826dbc6a2f8Get Airdrop82440432021-06-12 21:51:39169 days 1 hr ago0x976ba263c8c2a89d8473e26b654460fe7a9d3ab7OUT 0x2d2bb6cc040010583f16bb1c5afee129ed13b5320 BNB0.000287515
0xd495a28234f92ea91eab2551efbee49e91102dc86feddd924291612d44add8b7Get Airdrop82410022021-06-12 19:18:27169 days 4 hrs ago0x976ba263c8c2a89d8473e26b654460fe7a9d3ab7OUT 0x2d2bb6cc040010583f16bb1c5afee129ed13b5320 BNB0.000287515
0xa3cd6cc4d2929a9301fe71fa0394213b61e705f072b6dbf6c6850f2cb9b95defGet Airdrop82409992021-06-12 19:18:18169 days 4 hrs ago0x976ba263c8c2a89d8473e26b654460fe7a9d3ab7OUT 0x2d2bb6cc040010583f16bb1c5afee129ed13b5320 BNB0.000362515
0x573afc26c1d53c2c8a9a87e1ce80b7002bb91e805ec1e7eae8345a17025099d5Approve82364162021-06-12 15:27:17169 days 8 hrs ago0x976ba263c8c2a89d8473e26b654460fe7a9d3ab7OUT Binance: BUSD Stablecoin0 BNB0.00012411
[ Download CSV Export 
Parent Txn Hash Block From To Value
Loading

Contract Name:
0 BNB

Compiler Version
0

Optimization Enabled:
0 BNB

Other Settings:
-NA-
Block Transaction Gas Used Reward
Age Block Fee Address BC Fee Address Voting Power Jailed Incoming
Block Uncle Number Difficulty Gas Used Reward
Loading
Loading
Make sure to use the "Vote Down" button for any spammy posts, and the "Vote Up" for interesting conversations.